Overview Statistics Trail Chart Weather Telemetry Raw packets
 

This is the latest recevied weather packets stored in our database for station/object W0WFX-2. If no packets are shown the sender has not sent any weather packets the latest 10 day(s).

<< 24 25 26 27 28 29 30 >>
Time Temp. Humidity Pressure Rain* Wind** Luminosity Snow
1788474630 36.11° C 38% 1011 hPa 0 mm - 49 W/m² -
1788474325 36.67° C 37% 1010.9 hPa 0 mm - 167 W/m² -
1788474024 36.67° C 37% 1011.2 hPa 0 mm - 300 W/m² -
1788473720 36.67° C 37% 1010.9 hPa 0 mm - 328 W/m² -
1788473427 36.67° C 37% 1011 hPa 0 mm - 342 W/m² -
1788473116 36.67° C 36% 1011 hPa 0 mm - 356 W/m² -
1788472816 36.67° C 36% 1011 hPa 0 mm - 369 W/m² -
1788472510 37.22° C 35% 1011.1 hPa 0 mm - 389 W/m² -
1788472209 37.22° C 36% 1011 hPa 0 mm - 407 W/m² -
1788471904 36.67° C 37% 1011.2 hPa 0 mm - 419 W/m² -
1788471604 36.67° C 37% 1011 hPa 0 mm - 437 W/m² -
1788471300 36.67° C 36% 1011.2 hPa 0 mm - 62 W/m² -
1788470995 36.67° C 37% 1011.3 hPa 0 mm - 53 W/m² -
1788470691 36.67° C 38% 1011.2 hPa 0 mm - 70 W/m² -
1788470391 36.67° C 37% 1011.3 hPa 0 mm - 56 W/m² -
1788470086 36.67° C 38% 1011.2 hPa 0 mm - 54 W/m² -
1788469783 36.67° C 38% 1011.4 hPa 0 mm - 58 W/m² -
1788469482 36.67° C 39% 1011.4 hPa 0 mm - 56 W/m² -
1788469177 36.67° C 37% 1011.5 hPa 0 mm - 57 W/m² -
1788468872 36.67° C 37% 1011.1 hPa 0 mm - 55 W/m² -
1788468566 36.67° C 37% 1011.5 hPa 0 mm - 54 W/m² -
1788468263 36.67° C 37% 1011.5 hPa 0 mm - 54 W/m² -
1788467958 36.67° C 38% 1011.5 hPa 0 mm - 56 W/m² -
1788467654 36.67° C 38% 1011.6 hPa 0 mm - 56 W/m² -
1788467353 36.67° C 38% 1011.5 hPa 0 mm - 56 W/m² -

* Rain latest hour (hover to see other rain measurements)
** Current wind speed in m/s (hover to see current wind gust speed)